Location: Gebenbach
(49.5378°N, 11.8735°E)
Time: 03:31:33
(UTC+00:00)

CZ-4C R/B - Pass Details

Date: 29 October 2020
Orbit: 624 x 1378 km, 63.4° (Epoch: 24 November)

Event Time Altitude Azimuth Distance (km) Brightness Sun altitude
Rises 20:28:18 0° 315° (NW) 3,845 6.4 -43.2°
Reaches altitude 10° 20:30:53 10° 310° (NW) 2,990 5.6 -43.6°
Enters shadow 20:34:49 33° 288° (WNW) 1,909 4.2 -44.1°
